Location: S�tio Afonso Gruber
(26.1760°S, 49.5250°W)
Time: 17:34:34
(UTC+00:00)

KKS-1 - Pass Details

Date: 03 December 2022
Orbit: 635 x 645 km, 98.2° (Epoch: 06 February)

Event Time Altitude Azimuth Distance (km) Brightness Sun altitude
Exits shadow 01:38:21 17° 224° (SW) 1,651 ? -37.1°
Drops below altitude 10° 01:39:31 10° 215° (SW) 2,052 ? -37.2°
Sets 01:41:57 0° 205° (SSW) 2,971 ? -37.5°
